map of QPG home
QPG - Airport
Location
City:  Singapore, Singapore
Name:Paya Lebar Airport
ICAO:WSAP
IATA:QPG

Details
Type:Airport (Aerodrome, Airfield)
Use:Public/Civil, International (customs by prior arrangement)
Latitude:121'21"N (1.355722)
Longitude:10354'10"E (103.902778)
Elevation:65 ft (20 m)
Variation:0.23E (WMM2015 magnetic declination)
-0.00 annual change
Runways:1
Longest:12402 × 200 ft (3780 × 61 m), paved

Time
Time Zone:UTC+8
Local Time:

Weather
METAR:WSAP 230000Z 06004KT 5000 -TSRA FEW008 FEW012CB SCT015TCU BKN150 25/25 Q1011 RERA
TAF:WSAP 220500Z 2206/2312 03009KT 9999 FEW018CB SCT020
TEMPO 2206/2210 2500 TSRA SCT012CB BKN015
TEMPO 2304/2310 2500 TSRA SCT012CB BKN015

Related Locations
Nearby:
Farthest:TPN: 12381 mi / 19925 km
Tiputini, D, EC

Find:

   beyond  
but within

Other Information
Maps:
NOTAMs:
Links:
Sources:

  
flag of Singapore   

Airport Diagram

Airport diagram for QPG

Airport diagram PDF from AIP Singapore

Sectional Chart

Flight Planning
at skyvector.com

Satellite Image

Google Maps Satellite view

 

Copyright © 2004-2017 Karl L. Swartz. All rights reserved.
The Great Circle Mapper name and logo are trademarks of the Great Circle Mapper.
All other trademarks mentioned herein belong to their respective owners.
Please see credits for attibutions and further copyright information.

  Follow gcmap on Facebook Follow gcmap on Twitter Follow gcmap on Google+ GCmap on LinkedIn

hCard Microformat

Geo Microformat